Hurricane Symbol View the latest observations near East Pacific Tropical Storm Bud.

Station PILM4 - Passage Island, MI Image indicating link to RSS feed of recent meteorological observations for station PILM4


Conditions at PILM4 as of
(7:00 pm EDT)
2300 GMT on 07/24/2024:
     

Click on the graph icon in the table below to see a time series plot of the last five days of that observation.

5-day plot - Wind Direction Wind Direction (WDIR): SW ( 220 deg true )
5-day plot - Wind Speed Wind Speed (WSPD): 13 kts
5-day plot - Wind Gust Wind Gust (GST): 14 kts
5-day plot - Atmospheric Pressure Atmospheric Pressure (PRES):30.24 in
5-day plot - Pressure Tendency Pressure Tendency (PTDY):-0.03 in ( Falling )
5-day plot - Air Temperature Air Temperature (ATMP): 62.8 °F
5-day plot - Wind Speed at 10 Meters Wind Speed at 10 meters (WSPD10M): 14 kts
5-day plot - Wind Speed at 20 Meters Wind Speed at 20 meters (WSPD20M): 14 kts
5-day plot -  Wind Speed, Wind Gust and Atmospheric Pressure Combined plot of Wind Speed, Gust, and Air Pressure
Continuous Winds
TIME
(EDT)
5-day plot - Wind Direction WDIR 5-day plot - Wind Speed WSPD
7:00 pmSW ( 220 deg ) 13 kts
6:50 pmSW ( 222 deg ) 14 kts
6:40 pmSW ( 221 deg ) 13 kts
6:30 pmSW ( 216 deg ) 12 kts
6:20 pmSW ( 217 deg ) 12 kts
6:10 pmSW ( 214 deg ) 12 kts
 
Peak gust during the measurement hour
TIME
(EDT)
5-day plot - Gust Direction GDR 5-day plot - Gust Speed GST
6:42 pmSW ( 220 deg ) 15 kts
Previous observations
TIME
(EDT)
5-day plot - Wind Direction
WDIR
 
5-day plot - Wind Speed
WSPD
kts
5-day plot - Wind Gust
GST
kts
5-day plot - Wave Height
WVHT
ft
5-day plot - Dominant Wave Period
DPD
sec
5-day plot - Average Wave Period
APD
sec
5-day plot - Mean Wave Direction
MWD
 
5-day plot - Atmospheric Pressure
PRES
in
5-day plot - Pressure Tendency
PTDY
in
5-day plot - Air Temperature
ATMP
°F
5-day plot - Water Temperature
WTMP
°F
5-day plot - Dew Point
DEWP
°F
5-day plot - Salinity
SAL
psu
5-day plot - Visibility
VIS
nmi
5-day plot - Tide (above MLLW)
TIDE
ft
2024-07-24 06:00 pm SW 12 13----30.24-0.02 62.8-----
2024-07-24 05:00 pmSSW 9 9----30.26-0.01 62.6-----
2024-07-24 04:00 pm S 6 6----30.26-0.01 62.1-----
2024-07-24 03:00 pmSSE 4 5----30.26-0.02 61.5-----
2024-07-24 02:00 pm E 3 3----30.27-0.01 60.8-----
2024-07-24 01:00 pmENE 2 3----30.28+0.00 62.1-----
2024-07-24 12:00 pm N 6 7----30.29+0.01 60.4-----
2024-07-24 11:00 amENE 5 8----30.29+0.03 61.7-----
2024-07-24 10:00 am NE 7 10----30.28+0.04 61.5-----
2024-07-24 09:00 amNNE 7 8----30.27+0.03 60.4-----
2024-07-24 08:00 am NE 7 10----30.26+0.03 60.1-----
2024-07-24 07:00 amNNE 8 10----30.25+0.02 59.5-----
2024-07-24 06:00 amNNE 6 7----30.24+0.02 59.2-----
2024-07-24 05:00 amNNE 7 12----30.23+0.01 59.7-----
2024-07-24 04:00 am NE 7 9----30.22+0.01 59.5-----
2024-07-24 03:00 amENE 7 7----30.22+0.01 59.9-----
2024-07-24 02:00 am E 8 8----30.22+0.02 60.4-----
2024-07-24 01:00 am E 9 9----30.22+0.02 60.3-----
2024-07-24 12:00 am NE 7 9----30.21+0.03 60.1-----
2024-07-23 11:00 pm NE 8 10----30.20+0.02 61.5-----
2024-07-23 10:00 pmNNE 6 8----30.19+0.02 61.7-----
2024-07-23 09:00 pm NE 5 6----30.18+0.00 62.4-----
2024-07-23 08:00 pm NE 3 4----30.18+0.00 63.0-----